When you browse on this site, cookies collect data to enhance your experience and personalize the content and advertising you see.
Visit our Privacy Policy to learn more. By continuing to use the site, you agree to this use of cookies and data.
  • en Suisse
  • Liste des pays
  • À 7 jours
  • Température de l'eau
  • Carte météo
  • Widgets météo
  • user-avatar
    Se connecter

    Météo par heure à Graz

    Ce jour, 26 Mai, Mardi

    Heure Température Précipitation Vent Pression Humidité
    00:00 +10°C° 0.1 mm 1 m/s 732 mmHg 87%
    01:00 +10°C° 0 mm 1 m/s 733 mmHg 87%
    02:00 +9°C° 0 mm 1 m/s 732 mmHg 88%
    03:00 +9°C° 0 mm 1 m/s 732 mmHg 88%
    04:00 +8°C° 0 mm 2 m/s 732 mmHg 88%
    05:00 +9°C° 0 mm 2 m/s 733 mmHg 83%
    06:00 +10°C° 0 mm 2 m/s 733 mmHg 77%
    07:00 +12°C° 0 mm 2 m/s 733 mmHg 72%
    08:00 +13°C° 0.1 mm 3 m/s 733 mmHg 65%
    09:00 +14°C° 0.1 mm 3 m/s 733 mmHg 59%
    10:00 +15°C° 0.1 mm 4 m/s 733 mmHg 52%
    11:00 +15°C° 0.1 mm 4 m/s 733 mmHg 50%
    12:00 +17°C° 0.1 mm 4 m/s 733 mmHg 48%
    13:00 +18°C° 0.1 mm 4 m/s 732 mmHg 46%
    14:00 +18°C° 0.1 mm 4 m/s 732 mmHg 47%
    15:00 +17°C° 0.1 mm 4 m/s 732 mmHg 49%
    16:00 +17°C° 0.1 mm 4 m/s 732 mmHg 50%
    17:00 +16°C° 0 mm 3 m/s 732 mmHg 56%
    18:00 +14°C° 0 mm 3 m/s 732 mmHg 61%
    19:00 +14°C° 0 mm 2 m/s 732 mmHg 67%
    20:00 +12°C° 0 mm 2 m/s 733 mmHg 72%
    21:00 +10°C° 0 mm 2 m/s 733 mmHg 77%
    22:00 +9°C° 0 mm 2 m/s 734 mmHg 82%
    23:00 +8°C° 0 mm 2 m/s 734 mmHg 82%

    Demain, 27 Mai, Mercredi

    Heure Température Précipitation Vent Pression Humidité
    00:00 +8°C° 0 mm 2 m/s 734 mmHg 83%
    01:00 +8°C° 0 mm 2 m/s 734 mmHg 84%
    02:00 +7°C° 0 mm 2 m/s 734 mmHg 84%
    03:00 +7°C° 0 mm 2 m/s 734 mmHg 85%
    04:00 +7°C° 0 mm 2 m/s 733 mmHg 85%
    05:00 +9°C° 0 mm 2 m/s 734 mmHg 78%
    06:00 +12°C° 0 mm 2 m/s 734 mmHg 71%
    07:00 +14°C° 0 mm 2 m/s 734 mmHg 63%
    08:00 +15°C° 0 mm 2 m/s 734 mmHg 56%
    09:00 +17°C° 0 mm 2 m/s 734 mmHg 49%
    10:00 +19°C° 0 mm 2 m/s 734 mmHg 42%
    11:00 +20°C° 0 mm 2 m/s 734 mmHg 40%
    12:00 +21°C° 0 mm 2 m/s 733 mmHg 38%
    13:00 +23°C° 0 mm 2 m/s 733 mmHg 36%
    14:00 +21°C° 0 mm 2 m/s 733 mmHg 37%
    15:00 +21°C° 0 mm 3 m/s 732 mmHg 38%
    16:00 +21°C° 0 mm 3 m/s 732 mmHg 39%
    17:00 +20°C° 0 mm 2 m/s 732 mmHg 47%
    18:00 +18°C° 0 mm 2 m/s 732 mmHg 55%
    19:00 +16°C° 0 mm 2 m/s 732 mmHg 63%
    20:00 +15°C° 0 mm 2 m/s 732 mmHg 65%
    21:00 +13°C° 0 mm 2 m/s 732 mmHg 68%
    22:00 +12°C° 0 mm 2 m/s 732 mmHg 71%
    23:00 +10°C° 0 mm 2 m/s 732 mmHg 71%

    Après-demain, 28 Mai, Jeudi

    Heure Température Précipitation Vent Pression Humidité
    00:00 +10°C° 0 mm 2 m/s 732 mmHg 72%
    01:00 +10°C° 0 mm 1 m/s 732 mmHg 73%
    02:00 +11°C° 0 mm 1 m/s 732 mmHg 73%
    03:00 +11°C° 0 mm 1 m/s 732 mmHg 73%
    04:00 +11°C° 0 mm 1 m/s 731 mmHg 72%
    05:00 +12°C° 0 mm 1 m/s 731 mmHg 70%
    06:00 +13°C° 0 mm 1 m/s 731 mmHg 68%
    07:00 +15°C° 0 mm 1 m/s 731 mmHg 66%
    08:00 +15°C° 0.1 mm 1 m/s 731 mmHg 65%
    09:00 +16°C° 0.1 mm 1 m/s 731 mmHg 64%
    10:00 +18°C° 0.1 mm 1 m/s 731 mmHg 62%
    11:00 +18°C° 0.2 mm 1 m/s 731 mmHg 63%
    12:00 +19°C° 0.2 mm 1 m/s 730 mmHg 63%
    13:00 +18°C° 0.2 mm 2 m/s 730 mmHg 64%
    14:00 +17°C° 0.5 mm 2 m/s 730 mmHg 67%
    15:00 +17°C° 0.5 mm 2 m/s 730 mmHg 70%
    16:00 +16°C° 0.5 mm 2 m/s 730 mmHg 73%
    17:00 +15°C° 0.1 mm 2 m/s 730 mmHg 73%
    18:00 +14°C° 0.1 mm 2 m/s 730 mmHg 73%
    19:00 +13°C° 0.1 mm 1 m/s 730 mmHg 73%
    20:00 +12°C° 0 mm 1 m/s 730 mmHg 76%
    21:00 +11°C° 0 mm 1 m/s 730 mmHg 78%
    22:00 +9°C° 0 mm 2 m/s 730 mmHg 81%
    23:00 +9°C° 0 mm 2 m/s 730 mmHg 82%

    29 Mai, Vendredi

    Heure Température Précipitation Vent Pression Humidité
    00:00 +10°C° 0 mm 1 m/s 730 mmHg 83%
    01:00 +9°C° 0 mm 1 m/s 730 mmHg 85%
    02:00 +9°C° 0 mm 1 m/s 730 mmHg 85%
    03:00 +8°C° 0 mm 2 m/s 730 mmHg 85%
    04:00 +7°C° 0 mm 2 m/s 729 mmHg 86%
    05:00 +9°C° 0 mm 2 m/s 729 mmHg 78%
    06:00 +12°C° 0 mm 2 m/s 729 mmHg 71%
    07:00 +14°C° 0 mm 2 m/s 729 mmHg 63%
    08:00 +15°C° 0 mm 2 m/s 729 mmHg 56%
    09:00 +17°C° 0 mm 2 m/s 729 mmHg 48%
    10:00 +18°C° 0 mm 3 m/s 729 mmHg 41%
    11:00 +18°C° 0 mm 3 m/s 729 mmHg 40%
    12:00 +19°C° 0 mm 3 m/s 729 mmHg 38%
    13:00 +19°C° 0 mm 3 m/s 728 mmHg 37%
    14:00 +19°C° 0 mm 3 m/s 728 mmHg 38%
    15:00 +19°C° 0 mm 3 m/s 728 mmHg 38%
    16:00 +19°C° 0 mm 3 m/s 727 mmHg 38%
    17:00 +18°C° 0 mm 3 m/s 727 mmHg 45%
    18:00 +16°C° 0 mm 2 m/s 728 mmHg 51%
    19:00 +14°C° 0 mm 2 m/s 728 mmHg 58%
    20:00 +13°C° 0 mm 2 m/s 728 mmHg 63%
    21:00 +11°C° 0 mm 1 m/s 728 mmHg 67%
    22:00 +10°C° 0 mm 1 m/s 729 mmHg 72%
    23:00 +9°C° 0 mm 1 m/s 729 mmHg 74%

    30 Mai, Samedi

    Heure Température Précipitation Vent Pression Humidité
    00:00 +9°C° 0 mm 1 m/s 728 mmHg 76%
    01:00 +8°C° 0 mm 1 m/s 728 mmHg 78%
    02:00 +8°C° 0 mm 1 m/s 728 mmHg 79%
    03:00 +7°C° 0 mm 1 m/s 728 mmHg 80%
    04:00 +7°C° 0 mm 1 m/s 728 mmHg 81%
    05:00 +9°C° 0 mm 1 m/s 728 mmHg 73%
    06:00 +11°C° 0 mm 1 m/s 728 mmHg 65%
    07:00 +13°C° 0 mm 1 m/s 728 mmHg 57%
    08:00 +15°C° 0 mm 1 m/s 728 mmHg 51%
    09:00 +16°C° 0 mm 2 m/s 728 mmHg 45%
    10:00 +18°C° 0 mm 2 m/s 728 mmHg 38%
    11:00 +18°C° 0 mm 2 m/s 728 mmHg 39%
    12:00 +18°C° 0 mm 2 m/s 728 mmHg 39%
    13:00 +18°C° 0 mm 2 m/s 727 mmHg 40%
    14:00 +18°C° 0 mm 2 m/s 727 mmHg 41%
    15:00 +18°C° 0 mm 2 m/s 727 mmHg 42%
    16:00 +18°C° 0 mm 2 m/s 727 mmHg 44%
    17:00 +18°C° 0 mm 1 m/s 726 mmHg 51%
    18:00 +16°C° 0 mm 1 m/s 726 mmHg 58%
    19:00 +15°C° 0 mm 1 m/s 726 mmHg 65%
    20:00 +14°C° 0 mm 1 m/s 726 mmHg 69%
    21:00 +13°C° 0 mm 1 m/s 727 mmHg 73%
    22:00 +11°C° 0 mm 0 m/s 727 mmHg 77%
    23:00 +11°C° 0 mm 1 m/s 727 mmHg 78%

    31 Mai, Dimanche

    Heure Température Précipitation Vent Pression Humidité
    00:00 +11°C° 0 mm 1 m/s 727 mmHg 79%
    01:00 +11°C° 0 mm 1 m/s 727 mmHg 80%
    02:00 +10°C° 0 mm 1 m/s 726 mmHg 81%
    03:00 +10°C° 0 mm 1 m/s 726 mmHg 82%
    04:00 +10°C° 0 mm 1 m/s 726 mmHg 83%
    05:00 +11°C° 0 mm 1 m/s 726 mmHg 77%
    06:00 +12°C° 0 mm 0 m/s 726 mmHg 72%
    07:00 +13°C° 0 mm 0 m/s 726 mmHg 66%
    08:00 +14°C° 0.1 mm 0 m/s 726 mmHg 62%
    09:00 +18°C° 0.1 mm 1 m/s 726 mmHg 59%
    10:00 +19°C° 0.1 mm 1 m/s 726 mmHg 55%
    11:00 +19°C° 0.3 mm 1 m/s 726 mmHg 57%
    12:00 +18°C° 0.3 mm 2 m/s 725 mmHg 60%
    13:00 +18°C° 0.3 mm 2 m/s 725 mmHg 62%
    14:00 +18°C° 0.8 mm 2 m/s 725 mmHg 67%
    15:00 +17°C° 0.8 mm 2 m/s 724 mmHg 73%
    16:00 +17°C° 0.8 mm 2 m/s 724 mmHg 78%
    17:00 +16°C° 0.8 mm 1 m/s 724 mmHg 82%
    18:00 +15°C° 0.8 mm 1 m/s 724 mmHg 86%
    19:00 +14°C° 0.8 mm 1 m/s 724 mmHg 89%
    20:00 +14°C° 0.3 mm 1 m/s 724 mmHg 90%
    21:00 +13°C° 0.3 mm 1 m/s 724 mmHg 91%
    22:00 +13°C° 0.3 mm 1 m/s 724 mmHg 92%
    23:00 +11°C° 0.5 mm 0 m/s 724 mmHg 93%
    Voir plus